Location: Seven Kings
(51.5667°N, 0.1000°E)
Time: 22:52:15
(UTC+00:00)

X-37B - Pass Details

Date: 25 June 2021
Orbit: 383 x 392 km, 45.0° (Epoch: 01 July)

Event Time Altitude Azimuth Distance (km) Brightness Sun altitude
Rises 23:20:53 0° 258° (WSW) 2,256 4.4 -14.5°
Reaches altitude 10° 23:23:12 10° 243° (WSW) 1,402 3.2 -14.6°
Enters shadow 23:24:02 15° 232° (SW) 1,145 2.7 -14.6°
